Location: Street
(51.1247°N, 2.7429°W)
Time: 09:30:08
(UTC+00:00)

Tiros 1 - Pass Details

Date: 05 December 2020
Orbit: 630 x 663 km, 48.4° (Epoch: 28 January)

Event Time Altitude Azimuth Distance (km) Brightness Sun altitude
Rises 19:26:20 0° 277° (W) 2,991 11.7 -30.4°
Reaches altitude 10° 19:29:43 10° 253° (WSW) 2,070 10.5 -31.0°
Maximum altitude 19:32:10 14° 222° (SW) 1,801 9.8 -31.4°
Enters shadow 19:33:20 13° 205° (SSW) 1,859 9.7 -31.5°
Drops below altitude 10° 19:34:38 10° 190° (S) 2,054 - -31.7°
Sets 19:37:58 0° 166° (SSE) 2,953 - -32.3°
